Member area
Imprimable
Mons, 20/11/2021, BEL - Mons côté Bois & La Virée des Chin-Chins et Trail du Dragon
List of reports > Trail du Dragon - 22km - Result
Search: Page: [1]
242 Entries
 
Complains are not accepted anymore. Results are final.
Category
PosNrNameAgeNATTeamTimeTkmMoy.PlaceNameScrCity
1.143CUSSE Kevin36BELTTDA1:26:503:57 15.201SH21
2.368VAN WEVERBERG Tommy43BEL1:27:023:58 15.171VH12
3.26HAZETTE Henri37BELDTC1:27:343:59 15.072SH23
4.197LUYPAERT Dieter43BELTEAM DE FIETSER1:28:584:03 14.842VH14
5.89WATTIER Davy40BELTRAKKS / MADRES1:29:334:05 14.743VH15
6.390MORTIER Thomaas29BEL1:32:074:12 14.331SH16
7.265COLMANT MIDOL Michel46BEL1:32:324:13 14.274VH17
8.233MOREELS Guillaume38BELBIOTRAIL GUILI’S CLUB1:33:014:14 14.193SH28
9.391MISSIAEN Jonas39BEL1:34:224:18 13.994SH29
10.361LABORGNE Michael36BEL1:34:284:18 13.975SH210
11.295HUBERT Charles38BELMADRES1:35:294:21 13.836SH211
12.297HENAUT Louis26BELCCRUNNINGTEAM1:35:534:22 13.772SH112
13.11BOECKMANS Damien38BEL1:36:054:23 13.747SH213
14.174LECOMTE Clément27BEL1:36:344:24 13.673SH114
15.38SUDIRO Jordan38BEL1:36:354:24 13.678SH215
16.94BALBO Livio30BELETENGHIEN1:36:584:25 13.619SH216
17.376BONNIER Vincent38BEL1:37:074:25 13.5910SH217
18.305PAULUS David46BELHYUNDAI CORDISCO1:38:104:28 13.455VH118
19.356BIERNAUX Doriano23BEL1:38:124:28 13.444SH119
20.78DEVELLE Vivien41BELRST ATH1:38:174:29 13.436VH120
21.389HOCQUET Adrien26BEL1:38:224:29 13.425SH121
22.200HERMAN Jimmy40BELJÉRUSALEM FORCE TEAM1:38:504:30 13.367VH122
23.249LELEU Sylvain44BELLB TEAM1:39:054:31 13.328VH123
24.258DEVENYNS Stephane42BELRST ATH1:39:184:31 13.299VH124
25.125DEPAEPE Patrick51BELBIOTRAIL1:39:474:33 13.231VH225
26.263FRECOURT Xavier50BEL1:40:184:34 13.162VH226
27.306PICCAVET Niels34BELTRAILIZ1:41:144:37 13.0411SH227
28.350VIAET Lilles53BEL1:41:284:37 13.013VH228
29.50BEVERNAGIE Gwen35BEL1:41:374:38 12.9912SH229
30.396CARANILLE Romain29BEL1:41:534:38 12.966SH130
31.266TRAJIUS Gabriel54BELBCH VTT1:42:024:39 12.944VH231
32.144WATTIEZ Christophe44BELLES POTES Ô MALTÉS1:42:034:39 12.9410VH132
33.286GRAS Pierre41BEL1:42:204:40 12.9011VH133
34.355HOVINE Antonin29BEL1:43:174:42 12.787SH135
35.362VANOVERSCHELDE Francois44BEL1:43:414:43 12.7312VH136
36.181DIERYCK Pascal53BEL1:43:504:44 12.715VH237
37.45VANPAEMEL Hugues32BEL1:43:554:44 12.7013SH238
38.30FLASSE Will43BELRUGBY CLUB FRAMERIES1:43:554:44 12.7013VH139
39.206BERTE Stéphane44BELLES GENS D'ERE1:44:064:44 12.6814VH140
40.357LARDIER Florent35BEL1:44:194:45 12.6614SH241
41.352ZANIER Laurent46BEL1:44:454:46 12.6015VH142
42.372FORGE Kevin29BEL1:44:594:47 12.578SH143
43.62CARTON-DELCOURT Bruno33BELDTC TRAIL1:45:114:47 12.5515SH244
44.128MONFORT Michael42BELMADRES1:45:124:47 12.5516VH145
45.1DIEU Michael47BELTRAKKS1:45:204:48 12.5317VH146
46.247VANDERHOOST Alexis35BEL1:45:434:49 12.4916SH247
47.213DELERS Maximilien35BELPIKMOUTH1:45:484:49 12.4817SH248
48.242PLACE Jérémy36BELTOUCHÉ CREW1:46:224:51 12.4118SH249
49.228RONDELAERE Tom43BELCWT1:46:544:52 12.3518VH150
50.387MARBAIX Didier55BEL1:47:414:54 12.261VH352
51.169DUFOUR Dimitri40BELTEMPLEUVE1:47:464:54 12.2519VH153
52.229VANDAUL Florian28BEL1:47:504:55 12.249SH154
53.207FRANCQ Sébastien41BELSAINT-SYMPHORIEN1:48:314:56 12.1620VH155
54.85HANSOL Ismaël29BELWE TRAIL1:48:444:57 12.1410SH156
55.199PECCENINI Stéphane46BELBDD1:49:114:58 12.0921VH157
56.246GUILLEMEAU Julien27BELCOCOACH1:49:154:58 12.0811SH158
57.210DE MUNTER Toon42BEL1:49:244:59 12.0722VH159
58.373KRZYKOS Lucas22BEL1:49:314:59 12.0512SH161
59.351LECOMTE Christophe40BEL1:49:455:00 12.0323VH162
60.5DIEUDONNE Michel52BEL1:49:555:00 12.016VH263
61.354ESPOSITO Vincenzo47BEL1:50:095:01 11.9824VH164
62.131COLLIN Pierre51BELDREAM RUNNERS1:50:155:01 11.977VH265
63.238DEWEZ Bastien34BELJEBATSJÉRÉMYSOETE1:50:175:01 11.9719SH266
64.261KADDOUR DJEBBAR Mehdy34BEL1:50:275:02 11.9520SH267
65.28GOUTIERE François45BELLES CHAROGNARDS1:50:295:02 11.9525VH168
66.4DUFRANE Gil53BELSG3A1:50:335:02 11.948VH269
67.158ROBAK Wojciech39BEL1:50:375:02 11.9321SH270
68.66HELLIN Max40BEL1:50:465:03 11.9226VH171
69.58HENROTTE Quentin40BEL1:50:475:03 11.9227VH172
70.32SALMIN Francois37BELLES CHARROGNARDS1:50:555:03 11.9022SH273
71.137VAN EYCKE Gert53BELVOLHARDING BEVEREN1:51:115:04 11.879VH274
72.73MERCKX Patrick60BELVOLHARDING BEVEREN1:51:115:04 11.871VH475
73.76FIGEYS Arnout39BELVOLHARDING BEVEREN1:51:115:04 11.8723SH276
74.14VAN DRIESSCHE Damien45BELVELAINES1:51:185:04 11.8628VH177
75.180DUBREUCQ Aurélien38BELJOGGALUX1:52:085:06 11.7724SH278
76.60CARTON-DELCOURT Benoit35BELDTCOLLINES1:52:245:07 11.7425SH279
77.369BRIQUET Corentin29BEL1:52:455:08 11.7113SH180
78.384AL-NINA Hakim41BEL1:52:585:09 11.6929VH181
79.303BACHELART Damien40BELMOHA1:52:585:09 11.6830VH182
80.141LEBLON Marc42BELETC1:53:135:09 11.6631VH183
81.157VAN WIJNSBERGHE Thomas40BELRUN FLY1:54:135:12 11.5632VH184
82.196LOMBART Dimitri41BELBDD1:54:155:12 11.5633VH185
83.380COUPIN Patrick49BEL1:54:165:12 11.5534VH186
84.29DELWARTE Laurent45BELDREAM'S RUNNERS1:54:395:13 11.5135VH187
85.259DE VOS Denis41BEL1:54:415:13 11.5136VH188
86.223DELATTE Sylvain45BELBDD1:54:415:13 11.5137VH189
87.230DROSSART Jonathan34BEL1:54:415:13 11.5126SH290
88.254UYTTERSPROT Dieter33BEL1:55:015:14 11.4827SH291
89.47VANHOOF Fabian50BELF.E.R.1:55:055:14 11.4710VH292
90.149DEBO Nick56BELTRAILIZ1:55:125:15 11.462VH393
91.148LAMBERT Francois38BELTER-X-THREE1:55:185:15 11.4528SH294
92.12PICKAERT Patrick44BEL1:55:215:15 11.4438VH195
93.81POTTIEZ Philippe57BELVERTIGO1:55:405:16 11.413VH396
94.308PILETTE Benoit47BEL1:55:455:16 11.4039VH197
95.226PETIT Allain57BELTRAILIZ1:55:555:17 11.394VH399
96.44MANET Pierre37BEL1:55:565:17 11.3929SH2100
97.401DEREUME Pascal59BEL1:55:565:17 11.395VH3101
97.126SERON Alexandre44BELTCDM1:55:565:17 11.3940VH1101
99.386STILITE Yoann27BEL1:55:565:17 11.3914SH1103
100.23VAN GLABEKE Youri42BELKAIN BRUYERE1:55:575:17 11.3841VH1104
101.88BROUILLARD François47BELMADRES1:56:055:17 11.3742VH1105
102.209LIEGEOIS Vincent48BELSG3A1:56:055:17 11.3743VH1106
103.3DE BLOCK Thomas33BEL1:56:205:18 11.3530SH2107
104.52DELHALLE Xavier40BELANDRÈSTEAM1:56:265:18 11.3444VH1108
105.18LENOIR Olivier50BELMONS RUNNING TEAM1:56:365:18 11.3211VH2109
106.191BERTHELIN Pierre24BEL1:56:415:19 11.3115SH1110
107.309FASSEAUX Antoine32BEL1:56:575:19 11.2931SH2111
108.383VERWAERDE Olivier46BEL1:56:585:19 11.2945VH1112
109.90PRIELS Amaury27BEL1:56:595:20 11.2816SH1113
110.393BRION Stephane47BEL1:58:205:23 11.1646VH1114
111.392HUARD SIMO Simon32BEL1:58:415:24 11.1232SH2116
112.8GOETHALS Maxence41BELMADRES1:58:555:25 11.1047VH1117
113.366MAHIEU Laurent46BEL1:59:045:25 11.0948VH1118
114.121MARCHAND Yves56BELVERTIGO1:59:255:26 11.056VH3119
115.203SOETE Jeremy37BELSOETEAMANDCO1:59:325:26 11.0433SH2120
116.227D'ANGELO Gabriele50BELFER2:00:025:28 11.0012VH2121
117.37TRICOT Geoffrey32BELLES AMIS JOGGEURS2:00:265:29 10.9634SH2123
118.31WAUQUIER Jean-Marie47BELRUGBY CLUB FRAMERIES2:00:345:29 10.9549VH1125
119.79GERBOUX Olivier47BEL2:01:275:32 10.8750VH1127
120.243RENARD Guillaume27BELSPIRIDON BORINAGE2:01:395:32 10.8517SH1128
121.255JOLY Lucas49BELLA FORESTIERE2:01:445:32 10.8451VH1129
122.395SORRIAUX Bryan29BEL2:01:475:33 10.8418SH1130
123.72VAN DRIESSCHE Valentin27BELWETRAIL ACADÉMIE2:01:535:33 10.8319SH1131
124.280SPERLICH Charles41BELSOETEAM2:02:125:34 10.8052VH1132
125.111VAN RANST David46BEL2:02:205:34 10.7953VH1133
126.87DE SADELEER Winoc56BELVOLHARDING BEVEREN2:02:515:36 10.757VH3134
127.27SAWERYNIUK Chris49BEL2:03:315:37 10.6954VH1135
128.156VERMEERSCH Olivier42BELSPORT ÉVASION2:03:445:38 10.6755VH1137
129.42RODIA Frédéric48BELMADRES2:03:485:38 10.6656VH1138
130.222SPERLICH Guillaume43BELACBB2:04:015:39 10.6557VH1139
131.65SIMON Fabrice51BELSPIRIDON BORINAGE2:04:075:39 10.6413VH2140
132.9MATTHYS Pascal48BELAS VELAINES2:04:385:40 10.5958VH1141
133.56VAN HASSELT Dominique52BEL2:04:485:41 10.5814VH2142
134.33MARTIN Guy Marie61BEL2:04:565:41 10.572VH4143
135.248MOREELS Martin26BELBIOTRAIL2:05:075:42 10.5520SH1144
136.262MOLLE Jean-Francis41BEL2:05:355:43 10.5159VH1146
137.202ANTOCHEL Volodymyr41BELMADRES2:05:555:44 10.4860VH1147
138.74HOSTE Peter59BELVOLHARDING BEVEREN2:06:195:45 10.458VH3148
139.39LAYEUX Olivier44BELRUGBY FRAMERIES2:06:295:45 10.4461VH1149
140.69NUYTTEN Thibaut44BELAPÉRO RUNNING2:06:345:46 10.4362VH1150
141.40CHOQUET Thomas47BELN/A2:08:055:50 10.3163VH1152
142.59VERPOORTE Alain60BEL2:08:365:51 10.263VH4154
143.365DUQUESNE Emmanuel43BEL2:08:575:52 10.2464VH1155
144.124DI MARCO Ilario17BEL2:08:575:52 10.241ESH156
145.236GUERY Gregory45BEL2:08:575:52 10.2465VH1157
146.154PERVEUX Olivier43BELLA FORESTIÈRE2:08:575:52 10.2466VH1158
147.168PIERMAN Thomas32BELLA FORESTIÈRE2:08:575:52 10.2435SH2159
148.364MALBRECQ Bernard64BEL2:09:015:52 10.234VH4161
149.172BRUYERE Gauthier42BEL2:09:025:52 10.2367VH1162
150.146MICHAUX Dimitri49BEL2:09:055:53 10.2368VH1163
151.101BOTTELDOORN Stephane58BEL2:09:155:53 10.219VH3164
152.162DELETTRE Jean-Cyril52BEL2:09:505:55 10.1715VH2167
153.299GAUPIN Julien49BELTEAM HALLEBARDIERS2:09:525:55 10.1769VH1168
154.241VERHOEVEN Bruno33BEL2:09:585:55 10.1636SH2169
155.400VAN DER MEULEN Bernard63BEL2:10:005:55 10.155VH4170
156.367MANNIVO Massimo42BEL2:10:275:56 10.1270VH1175
157.67WACHEUL Dimitri47BELLES ÉCLATES PERUWELZIENS2:11:025:58 10.0771VH1176
158.91LEMOINE Fabian40BELRST ATH2:11:155:58 10.0672VH1177
159.291SPANNEUT Sébastien50BELMONT ET COLLINE2:11:175:59 10.0616VH2178
160.267TORREKENS Florian15BEL2:11:185:59 10.052ESH179
161.92CLAEYS Samuel49BELRST ATH2:11:195:59 10.0573VH1180
162.15AUDOOR Alain63BELVELAINES2:11:285:59 10.046VH4184
163.153QUINTIN Pierre59BELAS VELAINES2:11:365:59 10.0310VH3185
164.116SCHRAYEN Steve37BEL2:12:016:01 10.0037SH2186
165.105SCHMITZ Mathieu40BELADDM2:12:466:03 9.9474VH1187
166.232OZDEMIR Eren29BEL2:12:496:03 9.9421SH1188
167.240DESSINGES Reynald51BEL2:13:146:04 9.9117VH2189
168.252PIERON Vincent51BELLES ÉCLATÉS PÉRUWELZIENS2:13:206:04 9.9018VH2190
169.231DEMAREZ Corentin29BEL2:13:316:05 9.8922SH1191
170.224GONSETTE Charles-Etienne37BEL2:13:516:06 9.8638SH2193
171.296DECLERCQ Yannick47BELCOCOACH2:13:536:06 9.8675VH1195
172.250NEMEGHAIRE Laurent50BELLES ÉCLATÉS PÉRUWELZIENS2:13:556:06 9.8619VH2196
173.225THORNTON Geoffrey42BELTEAM MAHIA2:13:566:06 9.8676VH1197
174.132FIGUE Sebastien46BEL-2:14:046:06 9.8577VH1198
175.176VERDY Jacques63BELKAIN BRUYÈRE2:14:156:07 9.837VH4199
176.10WILLOCQ Philippe57BELHAC2:14:286:07 9.8211VH3201
177.279VENDOIS David39BELSANS2:14:596:09 9.7839SH2202
178.212LORIMIER Hérold48BELTEAM VERTIGO2:15:016:09 9.7878VH1203
179.304BALAND Johan47BELFARMERS CLUB2:15:196:10 9.7579VH1205
180.119ASSIF Muss48BEL2:15:376:10 9.7380VH1207
181.214DEMOUSTIER Cédric46BEL2:15:396:10 9.7381VH1208
182.183BELKACEM Racheid51BELL'ARBRE VERT2:15:456:11 9.7220VH2210
183.284DRAGUET Amaury30BEL2:16:116:12 9.6940SH2212
184.147POIVRE François26BEL2:16:166:12 9.6923SH1213
185.161BERTON Jean-Marc60BELSANS2:16:216:12 9.688VH4214
186.359LEPOUTRE Vincent49BEL2:16:416:13 9.6682VH1217
187.170URBAIN Arnaud37BEL/2:17:116:15 9.6241SH2218
188.379HOLOFFE Didier55BEL2:17:146:15 9.6212VH3219
189.360MINNE Etienne54BEL2:18:356:18 9.5221VH2221
190.120PUSCEDDU Mauro46BELTEAM VERTIGO2:18:356:18 9.5283VH1222
191.136RYCKEBOSCH Ludwig58BELB BÊTES DE COURSE2:18:376:19 9.5213VH3223
192.187DESLEE Eric59BELKAIN BRUYÈRE2:19:106:20 9.4914VH3226
193.211ROLAND Maxime36BEL2:19:206:20 9.4742SH2227
194.2VAN DE VYVER Laurent43BELRST2:19:276:21 9.4784VH1229
195.288SEMET Jean-Paul55BEL2:19:516:22 9.4415VH3231
196.34GILLARD Stéphane44BEL2:21:066:25 9.3685VH1232
197.112PEREZ BLANCO Sébastian34BEL2:23:006:30 9.2343SH2233
198.382MOLINARO Kevin33BEL2:23:116:31 9.2244SH2234
199.353LOUVAERT Michael41BEL2:23:116:31 9.2286VH1236
200.245BLANCKAERT Yves60BELEAD DOUCHY LES MINES2:24:016:33 9.179VH4237
201.133JUSTE David48BELJUPITEAM2:24:316:35 9.1387VH1240
202.257SGALBIERO Orazio64BEL2:25:226:37 9.0810VH4243
203.152BATAILLE DE LONGPREY Alexandre33BEL2:25:266:37 9.0845SH2245
204.179DESMET Yves63BELJCSK2:25:426:38 9.0611VH4246
205.377GHERDILLE J Marc55BEL2:25:546:38 9.0516VH3247
206.138BILLOT Pierre53BELZONARDS2:26:106:39 9.0322VH2248
207.195DONCK Geoffroy33BELRCBT2:26:136:39 9.0346SH2249
208.82LEMERCIER Valentin37BEL2:26:186:39 9.0247SH2250
209.175NEF Ludovic44BEL2:26:196:40 9.0288VH1251
210.57TIJTGAT Ewout46BEL2:26:276:40 9.0189VH1252
211.98ESTIEVENART Eric47BELMADRES2:26:296:40 9.0190VH1253
212.166BOQUET Frédéric49BELWE TRAIL ACADEMY2:26:316:40 9.0191VH1254
213.283MOURY Gwenn33BELFORESTIERE2:26:396:40 9.0048SH2256
214.193WAROQUET Mathieu37BELSANS2:26:396:40 9.0049SH2257
215.237ZULIANI Eddy50BEL2:26:476:41 8.9923VH2259
216.84BISET Jonathan31BEL2:28:056:44 8.9150SH2262
217.108PIERQUIN Pascal47BEL2:28:276:45 8.8992VH1263
218.244GOBERT Bruno32BEL2:28:366:46 8.8851SH2264
219.190STOUDER Wesley21BEL2:29:016:47 8.8624SH1267
220.123DI MARCO Claudio46BEL2:29:346:48 8.8393VH1268
221.388STILITE Frank55BEL2:29:546:49 8.8117VH3271
222.164GILLIARD Gerard69BELAC CAMBRAI2:30:046:50 8.801VH5273
223.114SAPORITO Sylvano42BELFER2:30:146:50 8.7994VH1274
224.55CNUDDE Olivier37BELCANICROSS CENTRE HAINAUT2:30:336:51 8.7752SH2276
225.177HOYOIS Bernard52BELGSK FUNCLUB2:30:336:51 8.7724VH2277
226.127MICHEL Benoit69BEL2:30:586:52 8.742VH5279
227.64MESTDAGH Michel68BEL2:30:596:52 8.743VH5280
228.173HARDAT Mickael40BELLES TROTTINEURS DE SOIGNI2:31:406:54 8.7095VH1281
229.118LELEUX Christophe39BELRUNAISSANCE.BE2:31:546:55 8.6953SH2282
230.253DEWANDEL Laurent57BEL2:32:526:57 8.6418VH3285
231.113FILISETTI Jean-Marie50BELMADRES2:33:226:59 8.6125VH2291
232.215DUYCKAERTS Benoit46BELTHEODO TEMPO2:33:346:59 8.6096VH1293
233.103MICHEL Maxime46BEL2:34:327:02 8.5497VH1297
234.298GILLET Romuald35BEL2:35:287:04 8.4954SH2298CASTEAU
235.375VANO Remy31BEL2:37:367:10 8.3855SH2300
236.80URBAIN Lionel39BELERCIES RUN2:37:367:10 8.3856SH2301
237.104BURION Gwennael34BELERCIERUN2:37:377:10 8.3857SH2303
238.51CORDIER Quentin39BELERCIES RUN2:37:377:10 8.3858SH2304
239.452CASSART Luc58BEL2:40:447:19 8.2119VH3307
240.53RENARD Pascal54BELJCL2:44:507:30 8.0126VH2310
241.83HEYSECOM David38BEL3:13:498:49 6.8159SH2312
242.25JORIO Ludovic38BELMOVE COACHING3:14:018:50 6.8060SH2313
DNF: did not finish; DSQ: disqualified; Speed in km/h
Page: [1]